Location: Sungai Kamana Besar
(2.6333°N, 113.4333°E)
Time: 04:36:56
(UTC+00:00)

Cosmos 1340 Rocket - Pass Details

Date: 29 May 2022
Orbit: 527 x 554 km, 81.2° (Epoch: 26 June)

Event Time Altitude Azimuth Distance (km) Brightness Sun altitude
Exits shadow 21:01:25 15° 182° (S) 1,535 4.8 -18.0°
Maximum altitude 21:04:44 82° 94° (E) 553 2.8 -17.3°
Drops below altitude 10° 21:08:41 10° 8° (N) 1,795 5.8 -16.4°
Sets 21:10:49 0° 7° (N) 2,679 6.8 -15.9°
